Jackpot

Texas Poker Multi Jackpot System

Kini Telah hadir Jackpot SUPER ROYAL FLUSH

Kini Telah hadir Jackpot 2000 (khusus table VIP keatas).

Ikutilah global jackpot yang tersedia di system kami, dengan system jackpot terbaru dan pertama di indonesia, anda dapat membeli jackpot dengan harga 100 rupiah saja dan menangkan hadiahnya hingga puluhan juta rupiah.

Jackpot bukanlah suatu keharusan untuk dibeli, namun kami memberikan suatu fitur tambahan untuk member tercinta dari www.kartuking.net.

Terdapat tiga pilihan harga jackpot yang bisa anda beli yaitu :100,500,1000 dan 2000(khusus table VIP Keatas) rupiah.

Hadiah dari Multi jackpot system www.kartuking.net

  1. full house x 10 harga jackpot yang anda beli.
      (contoh:anda membeli 1000 maka:1000 X10 = 10.000)
  2. four of kind x 250 harga jackpot yang anda beli
      (contoh:anda membeli 1000 maka:1000 X250 = 250.000)
  3. Straight flush x 1200
      (contoh:anda membeli 1000 maka:1000 X1200 = 1.200.000)
  4. Royal flush x 10000 harga jackpot yang anda beli
      (contoh:anda membeli 1000 maka:1000 X10000 = 10.000.000)
  5. SUPER ROYAL FLUSH x 30000 harga jackpot yang anda beli
      (contoh:anda membeli 1000 maka:1000 X30000 = 30.000.000)

Kondisi kartu

  1. full house adalah kondisi kartu dimana kartu anda dan kartu tengah dengan total 7 kartu bisa mendapatkan nilai 5 kartu dengan kombinasi 1 tris(three of kind) dan 1 pair, contoh 3 kartu 10 dan 2 kartu 5
  2. Four of kind adalah kondisi kartu dimana kartu anda dan kartu tengah dengan total 7 kartu bisa mendapatkan nilai 5 kartu dengan kombinasi 4 kartu yang sama jumlah dan 1 kartu apapun juga contoh anda mendapatkan 4 buah kartu angka 3 dan 1 kartu apapun.
  3. Staright flush adalah kondisi kartu dimana kartu anda dan kartu tengah dengan total 7 kartu bisa mendapatkan nilai 5 kartu dengan kombinasi seri / staright dengan kembang yang sama contoh : urutan kartu dari angka 5, 6, 7, 8 , 9 10 dengan kembang yg sama misalnya as hati
  4. Royal flush adalah kondisi kartu dimana kartu anda dan kartu tengah dengan total 7 kartu bisa mendapatkan nilai 5 kartu dengan kombinasi seri / staright dengan kembang yang sama tetapi kartu tersebut haruslah dimulai dari 10. contoh 10, Queen, Jack, King dan aces dengan kembang yang sama
  5. Super Royal flush adalah kondisi kartu dimana Kedua kartu anda digabung dengan 3 kartu pertama meja haruslah royal flush. contoh kartu anda 10,Queen kembang sama dan 3 kartu pertama meja adalah Jack, King dan aces dengan kembang yang sama

Demikian adalah penjelasan dari Multi Jackpot www.kartuking.net terima kasih dan selamat bermain salam hoki dari kami

Texas Poker Jackpot Winner

TOP SUPER ROYAL FLUSH
No.TanggalNamaPriceWin
121/07 21:21SZ2929Super Royal flush15,000,000
221/07 17:51IPNG300Super Royal flush1,500,000
321/07 15:51KRTSuper Royal flush15,000,000
421/07 11:20MAXJOSuper Royal flush6,000,000
521/07 04:29HOKI1285Super Royal flush3,000,000
TOP ROYAL FLUSH
No.TanggalNamaPriceWin
122/07 01:30CIEOBET21Royal flush20,000,000
222/07 01:27SEPERPIRoyal flush500,000
322/07 01:25VERO2003Royal flush2,000,000
422/07 01:18NOBITA6666Royal flush1,000,000
522/07 01:09IONGSELZ62Royal flush2,000,000
TOP STRAIGHT FLUSH
No.TanggalNamaPriceWin
122/07 01:30ANDREAS359Straight Flush600,000
222/07 01:30TUYULL69Straight Flush240,000
322/07 01:28UHANGKITOStraight Flush600,000
422/07 01:28JKTUPNDWP7Straight Flush600,000
522/07 01:28KETUA_BNIStraight Flush120,000
LATEST JACKPOT
No.TanggalNamaPriceWin
122/07 01:31ANDR14N05Full House2,000
222/07 01:31BOSSENNNNNFull House1,000
322/07 01:31TOGEPASAR1Full House1,000
422/07 01:31DZAKIRA88Full House2,000
522/07 01:31SC2DFLPQ1IFull House5,000
622/07 01:31JOKE_81Full House5,000
722/07 01:314T3ULFull House1,000
822/07 01:31SULE3456Full House500
922/07 01:31JOZZZZEFull House1,000
1022/07 01:31BAGONG_87Full House1,000
1122/07 01:31INDAH70Full House5,000
1222/07 01:30TEMPIEK88Full House5,000
1322/07 01:30TAMEDA3Full House1,000
1422/07 01:30CARDLUCKYFull House2,000
1522/07 01:30WGXTV224EJFull House2,000
1622/07 01:30P4NDY05Full House5,000
1722/07 01:30KONANG00Full House2,000
1822/07 01:30BIRIWIFull House5,000
1922/07 01:30OBOOYFull House2,000
2022/07 01:30OPUNG22Full House2,000
2122/07 01:30JABALA07Full House1,000
2222/07 01:30C3LUBFull House5,000
2322/07 01:30ANDREAS359Straight Flush600,000
2422/07 01:30PONGI666Full House10,000
2522/07 01:30HUSEEN66Full House2,000
2622/07 01:30TUYULL69Straight Flush240,000
2722/07 01:30SLUBAN9Full House1,000
2822/07 01:30KULITNUIFull House2,000
2922/07 01:30CAHAYAWPFull House5,000
3022/07 01:30SEMAR875Full House5,000
3122/07 01:30POLEM13Full House2,000
3222/07 01:30ZAM_TETTYFull House5,000
3322/07 01:30GAJOALI29Full House500
3422/07 01:30JIS99Full House2,000
3522/07 01:30FIRMAN003Full House2,000
3622/07 01:30CONDOK1Full House2,000
3722/07 01:30LAOON9Full House1,000
3822/07 01:30ASHEMFull House20,000
3922/07 01:30ADXSDGOLFull House2,000
4022/07 01:30RUNSPEEDFull House2,000
4122/07 01:30CON99ROSFull House2,000
4222/07 01:30SIWA1991Full House2,000
4322/07 01:30JACOB86Full House10,000
4422/07 01:30B1717JFull House10,000
4522/07 01:30ABOEY99Full House1,000
4622/07 01:30CIEOBET21Royal flush20,000,000
4722/07 01:30GOGOYESFull House10,000
4822/07 01:30HULDYFull House2,000
4922/07 01:30DESIS04Full House1,000
5022/07 01:30MASKUN09Full House1,000

Domino Multi Jackpot System

Ikutilah global jackpot yang tersedia di system kami, dengan system jackpot terbaru dan pertama di indonesia, anda dapat membeli jackpot dengan harga 100 rupiah saja dan menangkan hadiahnya hingga puluhan juta rupiah.

Jackpot bukanlah suatu keharusan untuk dibeli, namun kami memberikan suatu fitur tambahan untuk member tercinta dari www.kartuking.net.

Terdapat tiga pilihan harga jackpot yang bisa anda beli yaitu :100,500 dan 1000 rupiah.

Hadiah dari Multi jackpot system www.kartuking.net

  1. Murni Kecil x 50 harga jackpot yang anda beli.
      (contoh:anda membeli 1000 maka:1000 X 50 = 50.000)
  2. Murni Besar x 50 harga jackpot yang anda beli
      (contoh:anda membeli 1000 maka:1000 X 50 = 50.000)
  3. BALAK x 100 harga jackpot yang anda beli
      (contoh:anda membeli 1000 maka:1000 X 100 = 100.000)
  4. ENAM DEWA x 6666 harga jackpot yang anda beli
      (contoh:anda membeli 1000 maka:1000 X 6666 = 6.666.000)

Demikian adalah penjelasan dari Multi Jackpot www.kartuking.net terima kasih dan selamat bermain salam hoki dari kami

Domino Jackpot Winner

TOP ENAM DEWA
No.TanggalNamaPriceWin
122/07 00:40ROHENDI82murni enam6,666,000
222/07 00:27RHN1212murni enam3,333,000
321/07 23:44BOEL1999murni enam666,600
421/07 21:33EKO197murni enam6,666,000
521/07 20:50SDG183murni enam6,666,000
TOP BALAK
No.TanggalNamaPriceWin
122/07 01:29WIGOENA98balak50,000
222/07 01:22NETMBITbalak50,000
322/07 01:19MULES04balak100,000
422/07 01:17AD1009balak100,000
522/07 01:17KACANGKAbalak100,000
LATEST JACKPOT
No.TanggalNamaPriceWin
122/07 01:30PENGUASAQQmurni kecil5,000
222/07 01:30MOBRIG3murni kecil50,000
322/07 01:29AG8421murni besar5,000
422/07 01:29WIGOENA98balak50,000
522/07 01:28YUKIKOKUmurni kecil25,000
622/07 01:28PRA_JURIT9murni kecil50,000
722/07 01:28K4T4P477murni kecil5,000
822/07 01:27C1BELmurni kecil50,000
922/07 01:27ALENTINAmurni besar5,000
1022/07 01:27I954BU77murni kecil50,000
1122/07 01:26ZNONG03murni besar25,000
1222/07 01:26CYLLAZmurni kecil25,000
1322/07 01:25NANDOJAYmurni kecil5,000
1422/07 01:25ZIESKWmurni kecil5,000
1522/07 01:25MPYUQTKU12murni kecil25,000
1622/07 01:25ENHO222murni besar50,000
1722/07 01:23HIBNUmurni besar50,000
1822/07 01:23NOUBI00murni besar25,000
1922/07 01:22NETMBITbalak50,000
2022/07 01:21KADEKQQ7murni besar50,000
2122/07 01:21MAKKARAENGmurni kecil50,000
2222/07 01:21V1T48RU2IImurni besar5,000
2322/07 01:20BANDARJAWAmurni kecil25,000
2422/07 01:20YANSENSSSmurni kecil25,000
2522/07 01:20SHIMANIESmurni kecil50,000
2622/07 01:19MULES04balak100,000
2722/07 01:19EMPATBALOKmurni kecil50,000
2822/07 01:18SEMENTARAmurni kecil50,000
2922/07 01:18EXTC88murni kecil5,000
3022/07 01:17DEVILITO10murni besar50,000
3122/07 01:17AD1009balak100,000
3222/07 01:17KACANGKAbalak100,000
3322/07 01:16B383N80murni kecil5,000
3422/07 01:16CPM889murni kecil25,000
3522/07 01:16AUTAN17balak10,000
3622/07 01:16DEVILITO10murni kecil50,000
3722/07 01:16AMBROZIIbalak100,000
3822/07 01:16QSAWAL115murni kecil50,000
3922/07 01:16GANETSQUADmurni besar5,000
4022/07 01:16AYAHOLOTmurni kecil50,000
4122/07 01:15NGETUS79balak100,000
4222/07 01:15CYLLAZbalak50,000
4322/07 01:15HANGAHANGAmurni besar50,000
4422/07 01:14LAJUKAN99murni besar50,000
4522/07 01:14TANTRA67murni kecil25,000
4622/07 01:14D351F4murni kecil25,000
4722/07 01:12DENII11murni besar50,000
4822/07 01:12IW4N98murni kecil5,000
4922/07 01:11CYLLAZmurni kecil25,000
5022/07 01:11KASIH1988murni kecil5,000

Ceme Multi Jackpot System

Jackpot dilihat dari gabungan kartu pemain dengan kartu bandar. Bandar harus membeli jackpot sebanyak jumlah player yang sedang duduk. Sebagai contoh bila terdapat 3 pemain duduk bermain, dan bandar memutuskan untuk membeli jackpot Rp 1.000, maka pada periode tersebut bandar akan membeli jackpot sebanyak 3xRp1.000 = Rp3.000.

Jackpot bukanlah suatu keharusan untuk dibeli, namun kami memberikan suatu fitur tambahan untuk member tercinta dari www.kartuking.net.

Terdapat tiga pilihan harga jackpot yang bisa anda beli yaitu :100,500 dan 1000 rupiah.

Hadiah dari Multi jackpot system www.kartuking.net

  1. Murni Kecil x 50 harga jackpot yang anda beli.
      (contoh:anda membeli 1000 maka:1000 X 50 = 50.000)
  2. Murni Besar x 50 harga jackpot yang anda beli
      (contoh:anda membeli 1000 maka:1000 X 50 = 50.000)
  3. BALAK x 200 harga jackpot yang anda beli
      (contoh:anda membeli 1000 maka:1000 X 200 = 200.000)
  4. ENAM DEWA x 6666 harga jackpot yang anda beli
      (contoh:anda membeli 1000 maka:1000 X 6666 = 6.666.000)

Demikian adalah penjelasan dari Multi Jackpot www.kartuking.net terima kasih dan selamat bermain salam hoki dari kami

Ceme Jackpot Winner

TOP ENAM DEWA
No.TanggalNamaPriceWin
122/07 00:59SEPUKNENEKmurni enam666,600
222/07 00:51ENTOWXJI8Smurni enam6,666,000
322/07 00:46B50B86F5murni enam3,333,000
422/07 00:39PEMENANGLAmurni enam6,666,000
522/07 00:35MUJUR129murni enam3,333,000
TOP BALAK
No.TanggalNamaPriceWin
122/07 01:31MARC03_balak200,000
222/07 01:30PAYQISHOCKbalak100,000
322/07 01:30SIMONE55balak100,000
422/07 01:30B1N_T4NG21balak20,000
522/07 01:29AADDAKYO29balak200,000
LATEST JACKPOT
No.TanggalNamaPriceWin
122/07 01:31MARC03_balak200,000
222/07 01:30JAMESWON9murni besar50,000
322/07 01:30QQDEWI99murni kecil50,000
422/07 01:30AGR789murni kecil5,000
522/07 01:30ANDRIOKVIAmurni kecil5,000
622/07 01:30DANI1223murni besar50,000
722/07 01:30SIP0601murni kecil50,000
822/07 01:30DIANAMARmurni kecil50,000
922/07 01:30PAYQISHOCKbalak100,000
1022/07 01:30SELING21murni kecil5,000
1122/07 01:30SIMONE55balak100,000
1222/07 01:30B1N_T4NG21balak20,000
1322/07 01:29B4UNTUNG11murni kecil50,000
1422/07 01:29ARIEDAFFAmurni kecil50,000
1522/07 01:29CADAS28murni besar50,000
1622/07 01:29KUKURUYUK2murni kecil5,000
1722/07 01:29DIAS23murni kecil25,000
1822/07 01:29MARI011195murni kecil25,000
1922/07 01:29T0N_T0Nmurni kecil25,000
2022/07 01:29ROSSYID99murni kecil25,000
2122/07 01:29UNCANG24murni kecil5,000
2222/07 01:29AADDAKYO29balak200,000
2322/07 01:29B1D100balak20,000
2422/07 01:29JENGALmurni kecil5,000
2522/07 01:29ARES_WINSbalak200,000
2622/07 01:29J1LLbalak100,000
2722/07 01:29CADAS28murni kecil50,000
2822/07 01:29CEMONGBUY1balak20,000
2922/07 01:29PIJULmurni kecil5,000
3022/07 01:28XFIGHT17Xmurni kecil50,000
3122/07 01:28LUCIVER34murni kecil5,000
3222/07 01:28LAIKERZ1murni kecil50,000
3322/07 01:28ALAMAK54murni besar50,000
3422/07 01:28ABUDI7murni besar50,000
3522/07 01:28LAIKERZ1murni kecil50,000
3622/07 01:28IRSYADAFIFmurni kecil50,000
3722/07 01:28R093R02murni kecil50,000
3822/07 01:28DEDHY17murni kecil50,000
3922/07 01:28AADDAKYO29murni kecil25,000
4022/07 01:28SXAMmurni kecil50,000
4122/07 01:28AADDAKYO29balak100,000
4222/07 01:28GILANG0123murni kecil5,000
4322/07 01:27FWHTS3DO3Vbalak100,000
4422/07 01:27ARES_WINSmurni kecil50,000
4522/07 01:27J1LLmurni kecil25,000
4622/07 01:27ARES_WINSmurni kecil50,000
4722/07 01:27AGR789murni besar5,000
4822/07 01:27MPLSJENGmurni besar25,000
4922/07 01:27AGA909murni kecil50,000
5022/07 01:27JANDA989murni besar25,000